Orbital Elements at Epoch 2459200.5 (2020-Dec-17.0) TDB
Reference: JPL 17 (heliocentric ecliptic J2000)
Element | Value | Uncertainty (1-sigma) | Units |
e | .1379590491773152 | 3.1954e-08 | |
a | 2.160824943742198 | 7.4209e-09 | au |
q | 1.862719589064898 | 6.7928e-08 | au |
i | 1.677800947113099 | 3.5952e-06 | deg |
node | 219.5592852217448 | 0.00016142 | deg |
peri | .9013231179920528 | 0.00016238 | deg |
M | 109.3702965896854 | 1.915e-05 | deg |
tp | 2458848.027943239242 (2019-Dec-30.52794324) | 6.1039e-05 | TDB |
period | 1160.186489298043 3.18 | 5.9766e-06 1.636e-08 | d yr |
n | .3102949425120557 | 1.5985e-09 | deg/d |
Q | 2.458930298419497 | 8.4446e-09 | au |
|
| | Orbit Determination Parameters
Additional Information
|